Location: Helsinki
(60.1699°N, 24.9384°E)
Time: 19:16:46
(UTC+02:00)

Transit 4A - Pass Details

Date: 01 November 2020
Orbit: 862 x 982 km, 66.8° (Epoch: 29 November)

Event Time Altitude Azimuth Distance (km) Brightness Sun altitude
Rises 14:26:04 0° 189° (S) 3,617 12.3 9.9°
Reaches altitude 10° 14:28:48 10° 180° (S) 2,691 11.4 9.7°
Maximum altitude 14:34:23 35° 118° (ESE) 1,534 9.1 9.3°
Drops below altitude 10° 14:40:05 10° 55° (NE) 2,745 9.8 8.9°
Sets 14:42:52 0° 47° (NE) 3,699 10.4 8.6°
